Skip Page Navigation
NASA JPL Caltech
NASA Logo - Jet Propulsion Laboratory + View the NASA Portal
+ Center for Near-Earth Object Studies
JPL Home Earth Solar System Stars & Galaxies Technology
JPL Solar System Dynamics
BODIES ORBITS EPHEMERIDES TOOLS PHYSICAL DATA DISCOVERY FAQ SITE MAP
JPL Small-Body Database Browser
Search: [ help ]  
34230 (2000 QF93)
Classification: Main-belt Asteroid          SPK-ID: 2034230
Ephemeris | Orbit Diagram | Orbital Elements | Mission Design | Physical Parameters | Discovery Circumstances | Close-Approach Data ]

[ show orbit diagram ]
Orbital Elements at Epoch 2459000.5 (2020-May-31.0) TDB
Reference: JPL 31 (heliocentric ecliptic J2000)
 Element Value Uncertainty (1-sigma)   Units 
e .1507975808451497 3.4218e-08  
a 3.117530706278045 1.8032e-08 au
q 2.647414617560845 1.0362e-07 au
i 18.43249249891528 3.965e-06 deg
node 168.398744557983 1.2638e-05 deg
peri 289.4895672464868 1.8599e-05 deg
M 138.2385714583796 1.4224e-05 deg
tp 2458228.457385159980
(2018-Apr-19.95738516)
7.7694e-05 TDB
period 2010.548419375754
5.50
1.7444e-05
4.776e-08
d
yr
n .1790556230979878 1.5535e-09 deg/d
Q 3.587646794995246 2.0751e-08 au
  Orbit Determination Parameters
   # obs. used (total)      1774  
   data-arc span      8058 days (22.06 yr)  
   first obs. used      1998-05-26  
   last obs. used      2020-06-17  
   planetary ephem.      DE431  
   SB-pert. ephem.      SB431-N16  
   condition code      0  
   norm. resid. RMS      .48201  
   source      ORB  
   producer      Otto Matic  
   solution date      2020-Jun-23 20:20:04  

Additional Information
 Earth MOID = 1.72852 au 
 Jupiter MOID = 1.72299 au 
 T_jup = 3.121 
[ show covariance matrix ]

Ephemeris | Orbit Diagram | Orbital Elements | Mission Design | Physical Parameters | Discovery Circumstances | Close-Approach Data ]

Physical Parameter Table
Parameter Symbol Value Units Sigma Reference Notes
absolute magnitude H 12.9   n/a MPO474195  
diameter diameter 13.484 km 0.354 urn:nasa:pds:neowise_diameters_albedos::2.0[mainbelt] (http://adsabs.harvard.edu/abs/2011ApJ...741...68M)  
geometric albedo albedo 0.089   0.017 urn:nasa:pds:neowise_diameters_albedos::2.0[mainbelt] (http://adsabs.harvard.edu/abs/2011ApJ...741...68M)  

34230 (2000 QF93)          Discovered 2000-Aug-25 by LINEAR at Socorro
Reference: 20020128/Numbers.arcLast Updated: 2004-04-19

[ show close-approach data ]
Alternate Designations
 2000 QF93 = 1998 KB66 = 1999 NA60 
Ephemeris | Orbit Diagram | Orbital Elements | Mission Design | Physical Parameters | Discovery Circumstances | Close-Approach Data ]
ABOUT SSD CREDITS/AWARDS PRIVACY/COPYRIGHT GLOSSARY LINKS
FirstGov 2020-Jul-04 03:49 UT
(server date/time)  
NASA Home Page
Site Manager:   Ryan S. Park
Webmaster  Alan B. Chamberlin